Regional Weather Roundup
Issued by NWS

Home | Current Version | Previous Version | Graphics & Text | Print | Product List | Glossary On
Versions: 1 2 3 4 5 6 7 8 9 10 11 12 13 14 15 16 17 18 19 20 21 22 23 24 25 26 27 28 29 30 31 32 33 34 35 36 37 38 39 40 41 42 43 44 45 46 47 48 49 50
000
ASUS43 KLOT 202212
RWRIL

ILLINOIS REGIONAL WEATHER ROUNDUP
NATIONAL WEATHER SERVICE CHICAGO/ROMEOVILLE IL
400 PM CST MON FEB 20 2017

NOTE: "FAIR" INDICATES FEW OR NO CLOUDS BELOW 12,000 FEET WITH NO
SIGNIFICANT WEATHER AND/OR OBSTRUCTIONS TO VISIBILITY.

* THESE STATIONS ARE NOT UNDER NWS QUALITY CONTROL. THEY ALSO MAY NOT
  REPORT WEATHER SUCH AS PRECIPITATION OR FOG.

ILZ001-002-007-009-015-016-024-202300-
NORTHWEST ILLINOIS

CITY           SKY/WX    TMP DP  RH WIND       PRES   REMARKS
MOLINE         CLOUDY    73  51  46 SE15G24   29.81F
STERLING*      CLOUDY    67  53  61 SE13G18   29.88F
SAVANNA*       CLOUDY    66  53  62 S15       29.85S
$$

ILZ003-004-008-010-011-017-018-202300-
NORTH CENTRAL ILLINOIS

CITY           SKY/WX    TMP DP  RH WIND       PRES   REMARKS
ROCKFORD       CLOUDY    68  52  56 SE18      29.92F
FREEPORT*      CLOUDY    64  52  63 SE20      29.89S
ROCHELLE*      MOSUNNY   65  53  65 SE21G28   29.92F
DE KALB*       CLOUDY    66  53  62 SE18G28   29.95F
PERU*          CLOUDY    69  50  51 SE15      29.92F
$$

ILZ005-006-012>014-019>023-202300-
NORTHEAST ILLINOIS

CITY           SKY/WX    TMP DP  RH WIND       PRES   REMARKS
CHICAGO-OHARE  CLOUDY    68  47  46 SE22G28   29.96F
CHICAGO-MIDWAY CLOUDY    67  45  45 SE17      29.98F
AURORA         CLOUDY    68  52  56 SE23G30   29.95F
LANSING*       MOSUNNY   65  49  56 SE14G20   30.00F
JOLIET*        MOSUNNY   69  52  55 SE15      29.98S
WAUKEGAN       CLOUDY    51  41  68 SE12      29.97F
DUPAGE AIRPORT MOSUNNY   67  49  52 S12       29.96F
KANKAKEE*      CLOUDY    67  49  52 SE14G20   30.01R
WHEELING       CLOUDY    66  46  48 SE20      29.98F
MORRIS*        CLOUDY    68  51  54 SE15      29.95S
ROMEOVILLE*    LGT RAIN  65  52  62 S16       29.98S
NORTHERLY ISL    N/A     48  39  71 SE7         N/A
$$

LMZ740>746-202300-
SOUTHERN LAKE MICHIGAN

STATION/POSITION SKY/WX   TEMP    WIND        PRES    VSBY  WAVE
                          AIR SEA DIR/SP/G                  HT/PER
                          (F)     (DEG/KT/KT) (MB)    (MI)  (FT/S)
HARRISON CRIB              51     140/ 20/ 21   N/A
BURNHAM HARBOR             48     150/  6/  8   N/A
CALUMET HARBOR             65     140/  9/ 17 1015.1F
BURNS HARBOR               65     140/ 12/ 22 1016.6
MICHIGAN CITY              65     130/ 13/ 16   N/A
$$

ILZ025>027-034>036-040-047-049-050-058-095>099-202300-
WEST-CENTRAL ILLINOIS

CITY           SKY/WX    TMP DP  RH WIND       PRES   REMARKS
QUINCY         PTSUNNY   75  48  38 S18G28    29.85R
GALESBURG*     PTSUNNY   71  53  52 SE15G24   29.85S
MACOMB*        CLOUDY    73  52  48 SE18G25   29.87S
JACKSONVILLE*  CLOUDY    74  53  46 S16G22    29.90R
PITTSFIELD*    CLOUDY    76  49  39 S18G29    29.88R
$$

ILZ028>032-037-038-041>044-048-051>054-059>061-202300-
CENTRAL ILLINOIS

CITY           SKY/WX    TMP DP  RH WIND       PRES   REMARKS
PONTIAC        CLOUDY    69  53  55 SE18      29.97S
BLOOMINGTON    MOSUNNY   69  51  52 S16       29.96F
DECATUR        PTSUNNY   70  49  47 S18       29.97S
PEORIA         CLOUDY    72  50  45 S16       29.90S
LACON*         MOSUNNY   70  51  50 S17G24    29.90F
LINCOLN*       CLOUDY    72  52  49 S16G26    29.94S
SPRINGFIELD    MOSUNNY   74  50  42 S21G30    29.92F
TAYLORVILLE    MOSUNNY   72  51  46 S18G24    29.95F
$$

ILZ033-039-045-046-055>057-062-063-202300-
EAST-CENTRAL ILLINOIS

CITY           SKY/WX    TMP DP  RH WIND       PRES   REMARKS
CHAMPAIGN      SUNNY     70  50  49 S17       30.00S
RANTOUL*       MOSUNNY   70  53  53 S17G25    30.00S
MATTOON        SUNNY     68  52  56 S14G21    30.00S
PARIS*         CLOUDY    68  52  56 SE12      30.03S
$$

ILZ079-100>102-202300-
SOUTHWEST ILLINOIS

CITY           SKY/WX    TMP DP  RH WIND       PRES   REMARKS
ALTON          CLOUDY    72  54  53 S15G21    29.93S
BELLEVILLE     CLOUDY    72  55  55 VRB6      29.93F
CAHOKIA*       CLOUDY    72  53  51 SE15      29.92F
SPARTA*        MOSUNNY   71  55  56 S8        29.97F
$$

ILZ064>066-069>071-074>076-080>082-084>086-088>090-092>094-202300-
SOUTH-CENTRAL ILLINOIS

CITY           SKY/WX    TMP DP  RH WIND       PRES   REMARKS
CARBONDALE     PTSUNNY   70  55  59 S14       29.99S
CAIRO*         MOSUNNY   71  55  56 S7        30.00F
EFFINGHAM*     MOSUNNY   71  53  53 SE8       30.01S
MARION         CLOUDY    72  54  53 S12       30.00F
MT. VERNON     CLOUDY    72  53  51 SE8       29.98F
CENTRALIA*     CLOUDY    73  53  50 S12       29.97F
SALEM*         CLOUDY    73  50  43 S10       29.98F
METROPOLIS*    CLOUDY    70  52  52 CALM      30.02S
$$

ILZ067-068-072-073-078-083-087-091-202300-
SOUTHEAST ILLINOIS

CITY           SKY/WX    TMP DP  RH WIND       PRES   REMARKS
LAWRENCEVILLE  SUNNY     72  51  47 S14       30.03S
FLORA*         SUNNY     72  54  53 S15       30.00F
FAIRFIELD*     PTSUNNY   70  52  52 SE7       30.00F
HARRISBURG*    MOSUNNY   70  55  57 S12       30.01F
ROBINSON*      SUNNY     71  51  48 S10       30.03S
CARMI*         CLOUDY    69  55  61 S9        30.01F
$$

ABBREVIATIONS USED IN REMARKS
   TC - TEMPERATURE IN CELSIUS
  WCI - WIND CHILL INDEX
   HX - HEAT INDEX
  VSB - VISIBILITY
$$




USA.gov is the U.S. government's official web portal to all federal, state and local government web resources and services.